EW2795 Weather Reports


Display with metric or nautical units.
time (UTC)temp
F
wind
direction
speed
MPH
gust
MPH
rain 1hr
in
rain 24hr
in
rain mn
in
humidity
%
barometer
mb
20260507081544 38 276 0.0 0.0 0.00 0.00 0.00 94 1012.1
20260507080038 38 277 0.0 0.0 0.00 0.00 0.00 94 1012.1
20260507074525 38 277 0.0 0.0 0.00 0.00 0.00 94 1012.2
20260507073025 38 277 0.0 0.0 0.00 0.00 0.00 94 1012.1
20260507071510 38 277 0.0 0.0 0.00 0.00 0.00 94 1012.1
20260507070114 39 277 0.0 0.0 0.00 0.00 0.00 93 1012.2
20260507070001 39 277 0.0 0.0 0.00 0.00 0.00 93 1012.2
20260507064547 39 277 0.0 0.0 0.00 0.00 0.00 93 1012.2
20260507063048 39 277 0.0 0.0 0.00 0.00 0.00 93 1012.3
20260507061527 40 277 0.0 0.0 0.00 0.00 0.00 93 1012.3
20260507060035 40 276 0.0 0.0 0.00 0.00 0.00 93 1012.4
20260507054508 39 276 0.0 0.0 0.00 0.00 0.00 92 1012.7
20260507053051 39 276 0.0 0.0 0.00 0.00 0.00 92 1012.7
20260507051541 39 276 0.0 0.0 0.00 0.00 0.00 91 1012.7
20260507050036 40 277 0.0 0.0 0.00 0.00 0.00 90 1012.8
20260507044520 41 277 0.0 0.0 0.00 0.00 0.00 90 1012.6
20260507043017 41 277 0.0 0.0 0.00 0.00 0.00 90 1012.5
20260507041503 42 276 0.0 0.0 0.00 0.00 0.00 89 1012.6
20260507040048 42 277 1.0 0.0 0.00 0.00 0.00 89 1012.7
20260507034537 43 277 0.0 0.0 0.00 0.00 0.34 88 1012.8
20260507033028 43 277 0.0 0.0 0.00 0.00 0.34 87 1012.8
20260507031514 43 276 0.0 0.0 0.00 0.00 0.34 85 1013.0
20260507030106 44 277 0.0 0.0 0.00 0.00 0.34 84 1013.1
20260507024524 44 276 0.0 0.0 0.00 0.00 0.34 82 1013.1
20260507023004 45 277 0.0 0.0 0.00 0.00 0.34 80 1012.9
20260507021552 46 277 0.0 0.0 0.00 0.00 0.34 76 1012.8
20260507020044 47 276 0.0 0.0 0.00 0.00 0.34 74 1012.5
20260507014528 48 277 0.0 0.0 0.00 0.00 0.34 73 1012.6
20260507013023 49 277 0.0 0.0 0.00 0.00 0.34 72 1012.6
20260507011607 50 277 0.0 0.0 0.00 0.00 0.34 70 1012.4
20260507010055 50 276 1.0 0.0 0.00 0.00 0.34 67 1012.1
20260507004538 51 298 0.0 0.0 0.00 0.00 0.34 67 1012.1
20260507003028 51 300 1.0 0.0 0.00 0.00 0.34 65 1011.9
20260507001529 51 261 2.0 0.0 0.00 0.00 0.34 63 1011.7
20260507000017 52 253 1.0 0.0 0.00 0.00 0.34 62 1011.7
20260506234513 52 290 2.0 0.0 0.00 0.00 0.34 59 1011.5
20260506233006 53 275 2.0 0.0 0.00 0.00 0.34 57 1011.8
20260506231618 53 222 3.0 0.0 0.00 0.00 0.34 55 1011.9
20260506231504 53 248 3.0 0.0 0.00 0.00 0.34 56 1011.9
20260506230049 53 302 3.0 0.0 0.00 0.00 0.34 56 1011.9
20260506224542 53 267 1.0 0.0 0.00 0.00 0.34 57 1011.8
20260506223026 53 286 2.0 0.0 0.00 0.00 0.34 56 1011.9
20260506221517 53 289 1.0 0.0 0.00 0.00 0.34 56 1011.7
20260506220020 54 298 1.0 0.0 0.00 0.00 0.34 56 1011.5
20260506214602 54 252 3.0 0.0 0.00 0.00 0.34 53 1011.3
20260506214502 54 290 3.0 0.0 0.00 0.00 0.34 53 1011.3
20260506213040 55 259 2.0 0.0 0.00 0.00 0.34 56 1011.1
20260506211537 54 261 3.0 0.0 0.00 0.00 0.34 56 1011.2
20260506210035 55 272 2.0 0.0 0.00 0.00 0.34 54 1011.0
20260506204519 55 246 3.0 0.0 0.00 0.00 0.34 55 1010.6
20260506203015 55 264 3.0 0.0 0.00 0.00 0.34 57 1010.5
20260506201509 54 272 2.0 0.0 0.00 0.00 0.34 57 1010.7
20260506200010 55 319 1.0 0.0 0.00 0.00 0.34 59 1010.9
20260506194554 54 291 2.0 0.0 0.00 0.00 0.34 56 1010.9
20260506193045 55 345 3.0 0.0 0.00 0.00 0.34 57 1010.9
20260506191529 55 287 3.0 0.0 0.00 0.00 0.34 57 1010.7
20260506190021 55 280 3.0 0.0 0.00 0.00 0.34 58 1010.4
20260506184509 56 178 3.0 0.0 0.00 0.00 0.34 56 1010.5
20260506183052 57 311 3.0 0.0 0.00 0.00 0.34 56 1010.8
20260506181551 57 5 4.0 0.0 0.00 0.00 0.34 53 1010.6
20260506180045 56 337 4.0 0.0 0.00 0.00 0.34 57 1010.5
20260506174533 57 85 3.0 0.0 0.00 0.00 0.34 59 1010.6
20260506173028 57 267 4.0 0.0 0.00 0.00 0.34 60 1010.6
20260506171522 57 311 4.0 0.0 0.00 0.00 0.34 59 1010.4
20260506170008 56 39 3.0 0.0 0.00 0.00 0.34 62 1010.5
20260506164614 55 301 3.0 0.0 0.00 0.00 0.34 60 1010.5
20260506163047 55 319 3.0 0.0 0.00 0.00 0.34 68 1010.6
20260506161535 54 227 3.0 0.0 0.00 0.00 0.34 69 1010.5
20260506160028 53 267 3.0 0.0 0.00 0.00 0.34 70 1010.7
20260506154521 53 267 2.0 0.0 0.00 0.00 0.34 70 1010.3
20260506153013 52 360 3.0 0.0 0.00 0.00 0.34 70 1010.1
20260506151556 52 63 2.0 0.0 0.00 0.00 0.34 73 1010.1
20260506150046 51 32 3.0 0.0 0.00 0.00 0.34 73 1010.3
20260506144533 50 294 2.0 0.0 0.00 0.00 0.34 76 1010.0
20260506143032 50 304 3.0 0.0 0.00 0.00 0.34 77 1009.8
20260506141510 48 277 3.0 0.0 0.00 0.00 0.34 78 1009.5
20260506140101 48 49 3.0 0.0 0.00 0.00 0.34 81 1009.3
20260506140003 48 38 3.0 0.0 0.00 0.00 0.34 81 1009.3
20260506134551 47 14 2.0 0.0 0.00 0.00 0.34 86 1009.3
20260506133043 46 344 1.0 0.0 0.00 0.00 0.34 91 1009.2
20260506131536 45 266 1.0 0.0 0.00 0.00 0.34 92 1009.4
20260506130016 45 259 1.0 0.0 0.00 0.00 0.34 93 1009.2
20260506124504 45 240 2.0 0.0 0.00 0.00 0.34 94 1008.8
20260506123047 45 315 2.0 0.0 0.00 0.00 0.34 95 1008.5
20260506121546 45 292 1.0 0.0 0.00 0.00 0.34 96 1008.1
20260506120055 45 11 1.0 0.0 0.00 0.00 0.34 96 1007.9
20260506114516 45 37 1.0 0.0 0.00 0.00 0.34 96 1007.4
20260506113008 45 53 1.0 0.0 0.00 0.00 0.34 96 1006.9
20260506111559 45 27 1.0 0.0 0.00 0.00 0.34 96 1006.8
20260506110054 45 14 2.0 0.0 0.00 0.00 0.34 96 1007.4
20260506104541 45 57 2.0 0.0 0.00 0.00 0.34 96 1006.6
20260506103031 46 336 1.0 0.0 0.00 0.00 0.34 96 1007.0
20260506101518 46 320 1.0 0.0 0.00 0.00 0.34 96 1006.6
20260506100006 45 277 1.0 0.0 0.00 0.00 0.34 96 1006.3
20260506094555 45 53 2.0 0.0 0.00 0.00 0.34 96 1005.5
20260506093047 45 69 3.0 0.0 0.00 0.00 0.34 96 1005.2
20260506091541 45 40 3.0 0.0 0.00 0.00 0.33 96 1005.7
20260506090029 45 34 2.0 0.0 0.00 0.00 0.33 96 1006.0
20260506084525 46 53 2.0 0.0 0.00 0.00 0.31 96 1006.0
20260506083012 46 9 2.0 0.0 0.00 0.00 0.28 96 1005.8